Regional Weather Roundup
Issued by NWS State College, PA

Home | Current Version | Previous Version | Text Only | Print | Product List | Glossary Off
Versions: 1 2 3 4 5 6 7 8 9 10 11 12 13 14 15 16 17 18 19 20 21 22 23 24 25 26 27 28 29 30 31 32 33 34 35 36 37 38 39 40 41 42 43 44 45 46 47 48 49 50

000
ASUS41 KCTP 211203
RWRCTP

REGIONAL WEATHER ROUNDUP
NATIONAL WEATHER SERVICE STATE COLLEGE PA
800 AM EDT THU AUG 21 2014

Note: "fair" indicates few or no clouds below 12,000 feet with no
significant weather and/or obstructions to visibility.

* = STATION THAT DOES NOT REPORT PRECIPITATION /E.G. RAIN...SNOW...ETC/
    THUNDER OR FOG.

PAZ002>004-007>009-013>016-020>023-029>032-211300-
WESTERN PENNSYLVANIA

CITY           SKY/WX    TMP DP  RH WIND       PRES   REMARKS
ERIE           PTSUNNY   70  64  81 S3        30.00R
MEADVILLE      PTSUNNY   67  65  93 S6        30.04R FOG
FRANKLIN*      PTSUNNY   64  63  94 SW6       30.06R
NEW CASTLE     NOT AVBL
BEAVER COUNTY  SUNNY     64  64 100 CALM      30.04R FOG
BUTLER*        SUNNY     66  64  94 CALM      30.07R
PITTSBURGH INT PTSUNNY   66  65  96 S3        30.05R
PITTSBURGH     MOSUNNY   66  64  93 S6        30.05R
INDIANA*       SUNNY     68  66  94 SW3       30.10R FOG
LATROBE        PTSUNNY   68  68 100 CALM      30.07R FOG
WASHINGTON CO* MOSUNNY   66  66 100 CALM      30.06S
$$

PAZ004>006-010>012-017>019-024>028-033>037-041-042-045-046-049>053-211300-
CENTRAL PENNSYLVANIA

CITY           SKY/WX    TMP DP  RH WIND       PRES   REMARKS
BRADFORD       CLOUDY    65  64  97 W3        30.07R FOG
DUBOIS         PTSUNNY   65  65 100 W5        30.06R FOG
CLEARFIELD     FOG       63  63 100 CALM      30.07S VSB<1/4
JOHNSTOWN      SUNNY     68  64  87 W5        30.10R
ALTOONA        SUNNY     68  67  96 S3        30.08R FOG
STATE COLLEGE  FOG       66  66 100 SW7       30.06R VSB 1
WILLIAMSPORT   LGT RAIN  70  66  87 CALM      30.03R FOG
SELINSGROVE    CLOUDY    69  66  90 CALM      30.05R FOG
FT INDIANTOWN  MOSUNNY   66  66 100 E2        30.06R
CAPITAL CITY   SUNNY     69  64  84 CALM      30.05R
HARRISBURG     PTSUNNY   70  66  87 E3        30.05R
YORK           PTSUNNY   66  64  93 CALM      30.06R FOG
$$

PAZ038>040-043-044-047-048-054-055-060>062-067>071-211300-
EASTERN PENNSYLVANIA

CITY           SKY/WX    TMP DP  RH WIND       PRES   REMARKS
SCRANTON       CLOUDY    70  61  73 SW5       30.06R
MOUNT POCONO   CLOUDY    64  62  93 SW8       30.10R FOG
ALLENTOWN      MOSUNNY   70  63  78 CALM      30.06R
QUAKERTOWN*    MOSUNNY   66  64  94 CALM      30.07S
READING        MOSUNNY   70  64  81 N3        30.05R
LANCASTER      CLOUDY    67  65  93 CALM      30.05R FOG
COATESVILLE    CLOUDY    66  66 100 CALM      30.08R
POTTSTOWN      PTSUNNY   69  64  84 CALM      30.07S
BLUE BELL      SUNNY     72  66  83 CALM      30.06R
DOYLESTOWN     SUNNY     67  64  90 S3        30.06R
WILLOW GROVE   NOT AVBL
NORTH PHILA    PTSUNNY   71  63  75 CALM      30.07R
PHILADELPHIA   PTSUNNY   72  65  78 SE5       30.06R
$$



USA.gov is the U.S. government's official web portal to all federal, state and local government web resources and services.